Location: Unspecified
(0.0000°N, 0.0000°E)
Time: 03:30:19
(UTC+00:00)

Vanguard 2 - Pass Details

Date: 18 December 2018
Orbit: 553 x 2939 km, 32.9° (Epoch: 16 January)

Event Time Altitude Azimuth Distance (km) Brightness Sun altitude
Rises 13:52:55 0° 228° (SW) 4,810 12.2 53.3°
Reaches altitude 10° 13:56:51 10° 224° (SW) 3,417 11.7 52.6°
Maximum altitude 14:04:33 52° 150° (SSE) 1,134 9.2 51.1°
Drops below altitude 10° 14:09:25 10° 73° (ENE) 2,183 9.6 50.2°
Sets 14:11:26 0° 67° (ENE) 2,949 10.2 49.8°
